Regional Weather Roundup
Issued by NWS Green Bay, WI

Home | Current Version | Previous Version | Graphics & Text | Print | Product List | Glossary Off
Versions: 1 2 3 4 5 6 7 8 9 10 11 12 13 14 15 16 17 18 19 20 21 22 23 24 25 26 27 28 29 30 31 32 33 34 35 36 37 38 39 40 41 42 43 44 45 46 47 48 49 50

000
ASUS43 KGRB 301611
RWRGRB

NORTH-CENTRAL AND NORTHEAST WISCONSIN REGIONAL WEATHER ROUNDUP
NATIONAL WEATHER SERVICE GREEN BAY WI
1100 AM CDT THU JUL 30 2015

WIZ005-009-010>012-018-019-301700-
NORTH CENTRAL WISCONSIN

CITY           SKY/WX    TMP DP  RH WIND       PRES   REMARKS
IRONWOOD       SUNNY     72  55  56 W13G21    29.92R
MANITOWISH WTR MOSUNNY   74  55  50 NW10G24   29.96R
ARBOR VITAE    SUNNY     77  58  51 NW10G21   29.96S
EAGLE RIVER    PTSUNNY   75  49  39 NW18G31   29.95R
LAND O LAKES   SUNNY     75  51  42 NW13G24   29.94S
RHINELANDER    MOSUNNY   77  54  44 W16G24    29.97S
PHILLIPS       SUNNY     74  56  54 W9G20     29.98S
ANTIGO         SUNNY     75  56  50 W10G28    29.98S
TOMAHAWK       SUNNY     75  55  49 W10       29.98S
MERRILL        NOT AVBL
$$

WIZ013-073-301700-
NORTHEAST WISCONSIN

CITY           SKY/WX    TMP DP  RH WIND       PRES   REMARKS
IRON MOUNTAIN    N/A    N/A N/A N/A MISG      29.88S
MARINETTE      SUNNY     79  55  44 W7G17     29.89S
OCONTO         SUNNY     80  56  43 W13G28    29.92S
$$

WIZ017-030-035>037-045-301700-
CENTRAL WISCONSIN

CITY           SKY/WX    TMP DP  RH WIND       PRES   REMARKS
MEDFORD        SUNNY     74  60  62 W8        30.01S
WAUSAU         SUNNY     79  57  46 W14G21    29.98S
MOSINEE        SUNNY     77  57  50 W17G29    30.00F
MARSHFIELD     SUNNY     78  58  49 W12       30.02S
WISC RAPIDS    SUNNY     79  56  45 W12       30.03R
STEVENS POINT  SUNNY     75  58  54 W14       30.01S
WAUPACA        SUNNY     82  57  42 W13G20    29.99S
SHAWANO        SUNNY     81  57  44 W12G18    29.96S
CLINTONVILLE   SUNNY     79  55  44 W12       29.97S
$$

WIZ038-039-048-051-301700-
FOX VALLEY

CITY           SKY/WX    TMP DP  RH WIND       PRES   REMARKS
NWS GREEN BAY  SUNNY     79  60  52 W17G25    29.96S
APPLETON       SUNNY     77  55  47 W14G20    29.99S
OSHKOSH        SUNNY     79  59  50 W10       29.99S
FOND DU LAC    SUNNY     81  59  47 W14       30.01R
$$

WIZ022-050-052-301700-
EAST CENTRAL WISCONSIN

CITY           SKY/WX    TMP DP  RH WIND       PRES   REMARKS
STURGEON BAY   SUNNY     77  55  47 W14G23    29.94S
MANITOWOC      SUNNY     80  58  46 MISG      29.97S
SHEBOYGAN      SUNNY     81  59  47 NW15G22   29.99R
$$

LMZ563-521-522-541>543-301700-
LAKESHORE

STATION/POSITION TIME  TEMP    WIND        PRES    VSBY  WAVE
                       AIR SEA DIR/SP/G                  HT/PER
                 (UTC) (F)     (DEG/KT/KT) (MB)    (MI)  (FT/S)
SHEBOYGAN LKSHOR 1600   78     290/ 15/ 20 1015.3R
KEWAUNEE LKSHORE 1500   77     300/ 10/ 15 1013.2
ALGOMA MARINA    1512          260/ 10/ 18   N/A
NORTHPORT PIER   1500   74     280/  8/ 16 1011.5S
N MID LAKE BUOY  1550   70 68  250/ 16/ 17 1010.8R         3/ 4
S GREEN BAY BUOY 1600   68 66  250/ 10/ 12 1014.8
STURGEON BAY CG  1459   78     310/  8     1012.8      6   1
CHAMBERS ISLAND  1500   75     240/  5/ 13 1012.2S
MENOMINEE LKSHOR 1500   77     280/ 10/ 19 1013.1F
$$



USA.gov is the U.S. government's official web portal to all federal, state and local government web resources and services.